Regional Weather Roundup
Issued by NWS

Home | Current Version | Previous Version | Text Only | Print | Product List | Glossary On
Versions: 1 2 3 4 5 6 7 8 9 10 11 12 13 14 15 16 17 18 19 20 21 22 23 24 25 26 27 28 29 30 31 32 33 34 35 36 37 38 39 40 41 42 43 44 45 46 47 48 49 50
000
ASUS44 KMEG 231710
RWRTN
TENNESSEE HOURLY STATE WEATHER ROUNDUP
NATIONAL WEATHER SERVICE MEMPHIS TN
1200 PM CDT SAT JUL 23 2016

TNZ002-004-019-021-049-052-054-088>092-231800-
WEST TENNESSEE

CITY           SKY/WX    TMP DP  RH WIND       PRES   REMARKS
MEMPHIS INTL   CLOUDY    83  72  69 S8        30.00S
NWS MEMPHIS      N/A     82 N/A N/A MISG        N/A
JACKSON        PTSUNNY   87  74  64 VRB5      30.00F HX  95
DYERSBURG      MOSUNNY   88  75  66 MISG      29.98F HX  97
UNION CITY     SUNNY     86  75  70 CALM      29.98F HX  95
PARIS          MOSUNNY   86  75  70 S5        30.01S HX  95
LEXINGTON      SUNNY     88  73  62 W7        30.00S HX  96
$$

TNZ008-025-027-028-033-062-065-066-231800-
NORTH MIDDLE TENNESSEE

CITY           SKY/WX    TMP DP  RH WIND       PRES   REMARKS
NASHVILLE      PTSUNNY   92  74  55 E8        30.00F HX 101
CLARKSVILLE    SUNNY     88  74  63 CALM      30.00S HX  96
SMYRNA         SUNNY     93  75  55 CALM      30.00F HX 104
COOKEVILLE     SUNNY     91  73  55 S6        30.02S HX 100
CROSSVILLE     SUNNY     87  67  51 SE6       30.08F HX  90
$$

TNZ061-075-076-078-094-096-097-231800-
SOUTH MIDDLE TENNESSEE

CITY           SKY/WX    TMP DP  RH WIND       PRES   REMARKS
FAYETTEVILLE   MOSUNNY   90  73  58 SW7       30.02F HX  98
TULLAHOMA      MOSUNNY   91  72  52 W6        30.04F HX  98
WINCHESTER     SUNNY     91  73  55 VRB6      30.02F HX 100
MCMINNVILLE    SUNNY     91  77  62 SW6       30.03F HX 105
COLUMBIA       SUNNY     93  73  52 SW6       29.99F HX 102
SHELBYVILLE    MOSUNNY   93  77  59 VRB5      30.02F HX 107
$$

TNZ017-018-042-046-047-231800-
NORTHEAST TENNESSEE

CITY           SKY/WX    TMP DP  RH WIND       PRES   REMARKS
TRI CITIES     PTSUNNY   91  67  44 SW5       30.06F HX  94
ELIZABETHTON   SUNNY     88  68  51 CALM      30.06F HX  91
$$

TNZ012-013-036-069-073-074-231800-
CENTRAL EAST TENNESSEE

CITY           SKY/WX    TMP DP  RH WIND       PRES   REMARKS
KNOXVILLE      PTSUNNY   89  69  51 CALM      30.01F HX  93
OAK RIDGE      SUNNY     93  70  46 S3        30.03F HX  99
GATLINBURG       N/A     91  68  46 VRB3      30.01F HX  95
MORRISTOWN     PTSUNNY   90  72  55 VRB3      30.04F HX  96
$$

TNZ083-085-099-231800-
SOUTHEAST TENNESSEE

CITY           SKY/WX    TMP DP  RH WIND       PRES   REMARKS
CHATTANOOGA    CLOUDY    92  71  50 VRB3      30.01F HX  98
$$

SKY/WX REPORTED AS FAIR MEANS FEW OR NO CLOUDS BELOW
12 THOUSAND FEET.





USA.gov is the U.S. government's official web portal to all federal, state and local government web resources and services.